This demonstration page uses our WeatherBlox Daily Observations layout. Learn more.

Left ArrowRight Arrow

34.74481, -87.66753

Hourly Observations for December 3, 2019

Temp ( °F °C ) Dew Point ( °F °C ) Humidity (%) Winds ( mph kmh ) Pressure ( in mb ) Visibility ( mi km ) Precip ( " mm )
12:53 am 00:53 Cloudy 38 3.3 27 -2.8 65 65 N 5 7 30.09 1019 10 16 0.00 0.00
1:16 am 01:16 Partly Cloudy 37 2.8 27 -2.8 67 67 NNW 5 7 30.11 1020 10 16 0.00 0.00
1:53 am 01:53 Mostly Clear 36 2.2 28 -2.2 73 73 NNW 5 7 30.10 1019 10 16 0.00 0.00
2:53 am 02:53 Clear 36 2.2 28 -2.2 73 73 NW 5 7 30.09 1019 10 16 0.00 0.00
3:53 am 03:53 Clear 34 1.1 28 -2.2 79 79 WNW 5 7 30.09 1019 10 16 0.00 0.00
4:53 am 04:53 Clear 34 1.1 29 -1.7 82 82 WNW 3 6 30.08 1019 10 16 0.00 0.00
5:53 am 05:53 Clear 33 0.6 28 -2.2 82 82 Calm 30.08 1019 10 16 0.00 0.00
6:53 am 06:53 Sunny 32 0 28 -2.2 85 85 Calm 30.08 1019 10 16 0.00 0.00
7:53 am 07:53 Sunny 34 1.1 30 -1.1 85 85 Calm 30.07 1018 10 16 0.00 0.00
8:53 am 08:53 Sunny 38 3.3 32 0 79 79 SW 5 7 30.06 1018 10 16 0.00 0.00
9:53 am 09:53 Sunny 42 5.6 31 -0.6 65 65 VRB 3 6 30.06 1018 10 16 0.00 0.00
10:53 am 10:53 Sunny 44 6.7 31 -0.6 60 60 Calm 30.03 1017 10 16 0.00 0.00
11:53 am 11:53 Sunny 45 7.2 29 -1.7 54 54 VRB 3 6 29.99 1016 10 16 0.00 0.00
12:53 pm 12:53 Sunny 49 9.4 30 -1.1 48 48 VRB 3 6 29.96 1015 10 16 0.00 0.00
1:53 pm 13:53 Sunny 50 10 28 -2.2 43 43 VRB 3 6 29.93 1014 10 16 0.00 0.00
2:53 pm 14:53 Sunny 50 10 28 -2.2 43 43 Calm 29.92 1013 10 16 0.00 0.00
3:53 pm 15:53 Sunny 47 8.3 30 -1.1 52 52 WSW 3 6 29.91 1013 10 16 0.00 0.00
4:53 pm 16:53 Clear 45 7.2 30 -1.1 56 56 Calm 29.91 1013 10 16 0.00 0.00
5:53 pm 17:53 Clear 42 5.6 31 -0.6 65 65 Calm 29.90 1013 10 16 0.00 0.00
6:53 pm 18:53 Clear 40 4.4 32 0 73 73 Calm 29.90 1013 10 16 0.00 0.00
7:53 pm 19:53 Clear 40 4.4 33 0.6 77 77 Calm 29.91 1013 10 16 0.00 0.00
8:53 pm 20:53 Clear 39 3.9 33 0.6 79 79 Calm 29.92 1013 10 16 0.00 0.00
9:53 pm 21:53 Clear 38 3.3 33 0.6 83 83 Calm 29.93 1014 10 16 0.00 0.00
10:53 pm 22:53 Clear 36 2.2 31 -0.6 82 82 SSW 5 7 29.91 1013 10 16 0.00 0.00
11:53 pm 23:53 Clear 37 2.8 31 -0.6 79 79 Calm 29.91 1013 10 16 0.00 0.00

Powered by AerisWeather